DateTimeUTC,F1_A11,F1_S11,BsB_S11,BsG_S11,BsR_S11,BbsB_S11,BbsG_S11,BbsR_S11,BaB_A11,BaG_A11,BaR_A11,Tu_S11,T_S11,Uu_S11,U_S11,P_S11,T1_A11
2021-11-17T08:00:00Z,00000200,21000000,,,,,,,0000.13,0000.14,-000.22,18.9,25.9,,00.0,0639.4,30.9
2021-11-17T08:01:00Z,00000200,21000000,,,,,,,0000.11,0000.30,0000.20,18.9,25.9,,00.0,0639.3,30.9
2021-11-17T08:02:00Z,00000200,21000000,,,,,,,-000.07,-000.13,0000.18,18.9,25.9,,00.0,0639.3,30.9
2021-11-17T08:03:00Z,00000200,61000000,,,,,,,0000.23,0000.06,-000.20,18.9,25.9,,00.0,0639.3,30.9
2021-11-17T08:04:00Z,00000200,41000000,-000.22,0000.48,0000.29,0000.15,-000.14,0000.07,0000.18,-000.04,0000.29,19.3,25.8,,00.0,0640.2,30.9
2021-11-17T08:05:00Z,00000200,01000000,-000.16,-000.00,0000.17,0000.31,0000.11,0000.06,-000.04,0000.42,0000.08,19.4,25.8,,00.0,0640.3,30.9
2021-11-17T08:06:00Z,00000200,01000000,0000.47,0000.42,0000.38,0000.72,-000.35,0000.10,0000.09,-000.21,0000.19,19.4,25.9,,00.0,0640.3,30.9
2021-11-17T08:07:00Z,00000200,01000000,-000.26,0000.07,0000.17,-000.18,-000.00,-000.21,0000.10,0000.01,-000.27,19.5,25.9,,00.0,0640.3,30.9
2021-11-17T08:08:00Z,00000200,01000000,0001.00,0000.21,0000.07,-000.02,-000.14,-000.07,-000.02,-000.28,0000.03,19.5,25.9,,00.0,0640.3,30.9
2021-11-17T08:09:00Z,00000200,01000000,0000.57,0000.58,0000.19,0000.59,-000.18,-000.17,0000.02,0000.28,0000.18,19.4,25.9,,00.0,0640.4,30.9
2021-11-17T08:10:00Z,00000200,01000000,0000.31,-000.29,0000.28,0000.25,-000.10,-000.09,0000.15,0000.08,-000.09,19.4,25.9,,00.0,0640.4,30.9
2021-11-17T08:11:00Z,00000200,01000000,0000.64,0000.41,0000.50,-000.58,0000.19,0000.03,-000.15,0000.23,0000.12,19.4,25.9,,00.0,0640.4,30.9
2021-11-17T08:12:00Z,00000200,01000000,0000.77,0000.08,0000.37,0000.06,-000.12,-000.09,0000.27,-000.06,-000.04,19.4,25.9,,00.0,0640.5,30.9
2021-11-17T08:13:00Z,00000200,01000000,0000.67,0000.28,-000.01,0000.09,0000.22,-000.02,0000.07,0000.14,-000.09,19.5,25.9,,00.0,0640.5,30.9
2021-11-17T08:14:00Z,00000200,01000000,0000.22,0000.42,0000.28,0000.06,0000.06,-000.20,0000.14,0000.18,0000.46,19.5,25.9,,00.0,0640.4,30.9
2021-11-17T08:15:00Z,00000200,01000000,0000.22,0000.25,0000.39,0000.97,-000.20,-000.13,-000.10,-000.27,-000.13,19.6,25.9,,00.0,0640.4,30.9
2021-11-17T08:16:00Z,00000200,01000000,0000.60,0000.52,0000.02,0000.15,-000.32,0000.05,-000.04,0000.17,0000.17,19.6,25.9,,00.0,0640.4,30.9
2021-11-17T08:17:00Z,00000200,01000000,0000.72,0000.04,0000.21,0000.35,0000.18,0000.19,0000.11,0000.03,0000.03,19.6,26.0,,00.0,0640.4,30.9
2021-11-17T08:18:00Z,00000200,01000000,0000.63,0000.04,0000.44,0000.50,-000.08,0000.04,0000.01,0000.32,-000.05,19.7,26.0,,00.0,0640.5,30.9
2021-11-17T08:19:00Z,00000200,01000000,0000.95,0000.43,0000.24,0000.09,-000.07,-000.05,0000.15,0000.23,-000.18,19.7,26.0,,00.0,0640.5,30.9
2021-11-17T08:20:00Z,00000200,01000000,0000.35,-000.03,0000.17,0000.24,-000.11,0000.17,-000.27,-000.50,0000.27,19.7,26.0,,00.0,0640.6,30.9
2021-11-17T08:21:00Z,00000200,01000000,0000.58,-000.00,0000.38,0000.72,0000.11,0000.02,0000.33,-000.37,-000.38,19.7,26.0,,00.0,0640.6,30.9
2021-11-17T08:22:00Z,00000200,01000000,-000.22,0000.12,0000.04,-000.12,-000.11,-000.08,-000.21,0000.04,-000.03,19.6,26.0,,00.0,0640.6,30.9
2021-11-17T08:23:00Z,00000200,01000000,-000.26,0000.34,0000.14,0000.46,-000.19,0000.04,0000.22,0000.14,0000.27,19.5,26.0,,00.0,0640.6,30.9
2021-11-17T08:24:00Z,00000200,01000000,0000.67,-000.10,0000.17,0000.24,-000.03,0000.24,0000.02,0000.04,-000.19,19.5,25.9,,00.0,0640.6,30.9
2021-11-17T08:25:00Z,00000200,01000000,0000.66,0000.07,0000.11,0000.56,-000.18,-000.06,-000.16,0000.16,0000.12,19.4,25.9,,00.0,0640.6,30.9
2021-11-17T08:26:00Z,00000200,01000000,0000.04,0000.38,0000.09,0000.26,-000.19,0000.15,0000.20,0000.33,-000.05,19.5,25.9,,00.0,0640.7,30.9
2021-11-17T08:27:00Z,00000200,01000000,0000.38,0000.38,0000.46,0000.42,0000.04,-000.02,0000.32,0000.07,0000.18,19.5,25.9,,00.0,0640.7,30.9
2021-11-17T08:28:00Z,00000200,01000000,-000.05,0000.47,0000.06,0000.05,-000.15,-000.22,0000.22,0000.20,0000.01,19.5,25.9,,00.0,0640.7,30.9
2021-11-17T08:29:00Z,00000200,01000000,0000.38,0000.29,0000.17,0000.42,-000.08,-000.19,-000.05,0000.15,0000.17,19.5,25.9,,00.0,0640.8,30.9
2021-11-17T08:30:00Z,00000200,01000000,0000.20,0000.45,0000.24,0000.35,0000.16,0000.03,-000.03,-000.29,0000.20,19.6,25.9,,00.0,0640.8,30.9
2021-11-17T08:31:00Z,00000200,01000000,-000.36,0000.17,-000.01,0000.20,-000.05,0000.11,0000.03,0000.06,-000.15,19.6,26.0,,00.0,0640.8,31.0
2021-11-17T08:32:00Z,00000200,01000000,0000.01,0000.20,0000.03,0000.41,-000.03,-000.14,0000.26,0000.34,0000.19,19.7,26.0,,00.0,0640.8,30.9
2021-11-17T08:33:00Z,00000200,01000000,0000.66,0000.24,0000.41,0000.14,0000.03,0000.14,-000.14,-000.50,-000.14,19.7,26.0,,00.0,0640.8,30.9
2021-11-17T08:34:00Z,00000200,01000000,0000.95,0000.40,0000.10,0000.10,0000.13,-000.17,-000.12,-000.17,0000.10,19.7,26.0,,00.0,0640.7,30.9
2021-11-17T08:35:00Z,00000200,01000000,-000.04,0000.39,0000.25,-000.37,-000.18,0000.20,0000.15,0000.41,-000.30,19.6,26.0,,00.0,0640.7,30.9
2021-11-17T08:36:00Z,00000200,01000000,0000.06,0000.18,0000.43,-000.05,0000.07,0000.20,-000.08,-000.13,-000.10,19.5,26.0,,00.0,0640.7,30.9
2021-11-17T08:37:00Z,00000200,01000000,0000.82,0000.46,0000.43,-000.11,0000.03,0000.07,0000.07,0000.28,-000.11,19.4,25.9,,00.0,0640.7,30.9
2021-11-17T08:38:00Z,00000200,01000000,0000.63,0000.02,0000.31,-000.54,0000.01,0000.06,-000.18,0000.09,0000.28,19.3,25.9,,00.0,0640.7,30.8
2021-11-17T08:39:00Z,00000200,01000000,0000.59,0000.59,-000.16,-000.08,-000.33,-000.18,0000.44,-000.19,-000.12,19.3,25.8,,00.0,0640.7,30.9
2021-11-17T08:40:00Z,00000200,01000000,-000.22,0000.29,0000.17,0000.56,-000.12,0000.09,0000.04,-000.08,0000.08,19.3,25.8,,00.0,0640.7,30.8
2021-11-17T08:41:00Z,00000200,01000000,0000.79,0000.33,0000.20,0000.05,0000.01,-000.13,0000.08,0000.47,0000.15,19.3,25.8,,00.0,0640.7,30.9
2021-11-17T08:42:00Z,00000200,01000000,0000.32,0000.48,0000.15,-000.16,0000.06,-000.19,0000.03,0000.40,0000.02,19.3,25.8,,00.0,0640.6,30.9
2021-11-17T08:43:00Z,00000200,01000000,0000.67,0000.44,0000.46,0000.11,-000.13,0000.31,0000.16,-000.21,0000.15,19.3,25.8,,00.0,0640.6,30.9
2021-11-17T08:44:00Z,00000200,01000000,0000.55,0000.13,-000.14,0000.01,-000.09,0000.04,0000.19,0000.15,-000.01,19.4,25.8,,00.0,0640.7,30.9
2021-11-17T08:45:00Z,00000200,01000000,-000.46,0000.05,-000.01,0000.26,-000.28,0000.01,-000.10,-000.18,-000.09,19.4,25.8,,00.0,0640.7,30.9
2021-11-17T08:46:00Z,00000200,01000000,0000.42,0000.01,-000.04,0000.18,0000.24,0000.15,0000.22,0000.04,0000.01,19.5,25.9,,00.0,0640.7,30.9
2021-11-17T08:47:00Z,00000200,01000000,0000.81,0000.06,0000.14,0000.07,0000.01,0000.05,-000.15,0000.14,0000.27,19.5,25.9,,00.0,0640.6,30.9
2021-11-17T08:48:00Z,00000200,01000000,0000.46,-000.07,0000.32,0000.28,-000.40,0000.17,-000.05,-000.33,-000.21,19.4,25.9,,00.0,0640.6,30.9
2021-11-17T08:49:00Z,00000200,01000000,0000.91,0000.41,0000.46,0000.80,-000.16,0000.32,0000.14,0000.28,0000.09,19.4,25.9,,00.0,0640.6,30.9
2021-11-17T08:50:00Z,00000200,01000000,0000.52,0000.52,0000.32,0000.09,-000.06,0000.03,0000.14,0000.14,-000.19,19.3,25.9,,00.0,0640.6,30.9
2021-11-17T08:51:00Z,00000200,01000000,0000.47,0000.20,0000.38,0000.36,-000.10,0000.32,0000.23,-000.03,0000.13,19.2,25.8,,00.0,0640.6,30.8
2021-11-17T08:52:00Z,00000200,01000000,0001.10,0000.28,0000.40,-000.16,0000.14,-000.01,-000.23,-000.07,0000.24,19.1,25.8,,00.0,0640.5,30.8
2021-11-17T08:53:00Z,00000200,01000000,0000.25,0000.14,0000.23,0000.58,-000.12,-000.07,0000.16,0000.11,-000.12,19.1,25.7,,00.0,0640.5,30.8
2021-11-17T08:54:00Z,00000200,01000000,0000.03,0000.01,0000.20,0000.34,0000.21,0000.25,0000.16,0000.05,0000.33,19.0,25.7,,00.0,0640.5,30.8
2021-11-17T08:55:00Z,00000200,01000000,0000.14,0000.42,-000.08,-000.13,0000.04,-000.11,0000.23,0000.13,0000.15,19.0,25.7,,00.0,0640.5,30.8
2021-11-17T08:56:00Z,00000200,01000000,0000.21,0000.30,0000.10,0000.31,0000.01,0000.11,-000.02,-000.00,-000.22,19.0,25.6,,00.0,0640.5,30.8
2021-11-17T08:57:00Z,00000200,41000000,,,,,,,0001.01,0001.28,0000.87,19.1,25.7,,00.0,0640.5,30.8
2021-11-17T08:58:00Z,00000200,61000000,,,,,,,-000.73,-000.47,-000.64,18.8,25.8,,00.0,0639.6,30.8
2021-11-17T08:59:00Z,00000200,21000000,,,,,,,-000.04,-000.04,0000.01,18.8,25.9,,00.0,0639.6,30.9
